When you browse on this site, cookies collect data to enhance your experience and personalize the content and advertising you see.
Visit our Privacy Policy to learn more. By continuing to use the site, you agree to this use of cookies and data.
  • In Austria
  • List of Countries
  • For 7 days
  • Water Temperature
  • Weather Map
  • News
  • Weather Widgets
  • user-avatar
    Login

    Hourly Weather Belize

    Today, 20 February, Thursday

    Time Temperature Precipitation Wind Pressure Humidity
    00:00 +24°C° 0.2 mm 6 mps 761 mmHg 99%
    01:00 +24°C° 0.1 mm 6 mps 761 mmHg 99%
    02:00 +25°C° 0.1 mm 5 mps 761 mmHg 99%
    03:00 +25°C° 0.1 mm 5 mps 760 mmHg 99%
    04:00 +23°C° 0.2 mm 5 mps 760 mmHg 99%
    05:00 +23°C° 0.2 mm 5 mps 761 mmHg 99%
    06:00 +23°C° 0.2 mm 4 mps 761 mmHg 99%
    07:00 +25°C° 0.3 mm 4 mps 761 mmHg 96%
    08:00 +26°C° 0.3 mm 5 mps 762 mmHg 94%
    09:00 +28°C° 0.3 mm 5 mps 762 mmHg 92%
    10:00 +28°C° 0.2 mm 5 mps 762 mmHg 86%
    11:00 +29°C° 0.2 mm 5 mps 762 mmHg 81%
    12:00 +30°C° 0.2 mm 5 mps 762 mmHg 75%
    13:00 +32°C° 0.1 mm 5 mps 761 mmHg 70%
    14:00 +32°C° 0.1 mm 4 mps 760 mmHg 64%
    15:00 +33°C° 0.1 mm 4 mps 760 mmHg 59%
    16:00 +30°C° 0 mm 4 mps 760 mmHg 67%
    17:00 +29°C° 0 mm 4 mps 761 mmHg 76%
    18:00 +27°C° 0 mm 4 mps 761 mmHg 85%
    19:00 +26°C° 0 mm 4 mps 761 mmHg 90%
    20:00 +25°C° 0 mm 4 mps 762 mmHg 94%
    21:00 +23°C° 0 mm 4 mps 762 mmHg 98%
    22:00 +24°C° 0 mm 3 mps 762 mmHg 98%
    23:00 +24°C° 0 mm 3 mps 762 mmHg 98%

    Tomorrow, 21 February, Friday

    Time Temperature Precipitation Wind Pressure Humidity
    00:00 +24°C° 0 mm 3 mps 763 mmHg 99%
    07:00 +25°C° 0 mm 3 mps 763 mmHg 92%
    08:00 +26°C° 0 mm 4 mps 764 mmHg 85%
    09:00 +28°C° 0 mm 4 mps 764 mmHg 78%
    10:00 +30°C° 0 mm 5 mps 764 mmHg 69%
    11:00 +32°C° 0 mm 5 mps 764 mmHg 59%
    12:00 +34°C° 0 mm 6 mps 764 mmHg 50%
    13:00 +34°C° 0 mm 6 mps 763 mmHg 47%
    14:00 +35°C° 0 mm 6 mps 762 mmHg 44%
    15:00 +35°C° 0 mm 6 mps 761 mmHg 41%
    16:00 +32°C° 0 mm 6 mps 762 mmHg 55%
    17:00 +28°C° 0 mm 6 mps 762 mmHg 69%
    18:00 +26°C° 0 mm 6 mps 762 mmHg 83%
    19:00 +24°C° 0 mm 6 mps 763 mmHg 86%
    20:00 +25°C° 0 mm 5 mps 763 mmHg 89%
    21:00 +23°C° 0 mm 5 mps 764 mmHg 92%
    22:00 +23°C° 0.8 mm 6 mps 764 mmHg 93%
    23:00 +23°C° 0.8 mm 7 mps 764 mmHg 95%

    Day after tomorrow, 22 February, Saturday

    Time Temperature Precipitation Wind Pressure Humidity
    00:00 +22°C° 0.8 mm 7 mps 764 mmHg 96%
    01:00 +22°C° 0.8 mm 7 mps 764 mmHg 97%
    02:00 +22°C° 0.8 mm 7 mps 763 mmHg 98%
    03:00 +22°C° 0.8 mm 7 mps 763 mmHg 98%
    04:00 +21°C° 0.1 mm 7 mps 763 mmHg 98%
    05:00 +21°C° 0.1 mm 7 mps 764 mmHg 98%
    06:00 +20°C° 0.1 mm 7 mps 764 mmHg 98%
    07:00 +21°C° 0 mm 7 mps 765 mmHg 93%
    08:00 +22°C° 0 mm 6 mps 765 mmHg 87%
    09:00 +23°C° 0 mm 6 mps 766 mmHg 82%
    10:00 +26°C° 0 mm 6 mps 766 mmHg 72%
    11:00 +28°C° 0 mm 5 mps 765 mmHg 62%
    12:00 +30°C° 0 mm 5 mps 765 mmHg 51%
    13:00 +30°C° 0 mm 5 mps 764 mmHg 51%
    14:00 +30°C° 0 mm 5 mps 763 mmHg 50%
    15:00 +30°C° 0 mm 5 mps 763 mmHg 50%
    16:00 +29°C° 0 mm 5 mps 763 mmHg 60%
    17:00 +27°C° 0 mm 5 mps 763 mmHg 70%
    18:00 +24°C° 0 mm 6 mps 763 mmHg 79%
    19:00 +23°C° 0 mm 6 mps 764 mmHg 84%
    20:00 +22°C° 0 mm 6 mps 764 mmHg 88%
    21:00 +21°C° 0 mm 6 mps 764 mmHg 93%
    22:00 +21°C° 0.2 mm 6 mps 764 mmHg 93%
    23:00 +21°C° 0.2 mm 6 mps 764 mmHg 94%

    23 February, Sunday

    Time Temperature Precipitation Wind Pressure Humidity
    00:00 +21°C° 0.2 mm 6 mps 764 mmHg 95%
    01:00 +20°C° 0.1 mm 6 mps 764 mmHg 95%
    02:00 +20°C° 0.1 mm 6 mps 764 mmHg 94%
    03:00 +19°C° 0.1 mm 6 mps 763 mmHg 94%
    04:00 +17°C° 0 mm 6 mps 763 mmHg 92%
    05:00 +17°C° 0 mm 5 mps 764 mmHg 90%
    06:00 +16°C° 0 mm 5 mps 764 mmHg 89%
    07:00 +19°C° 0 mm 4 mps 764 mmHg 79%
    08:00 +21°C° 0 mm 4 mps 765 mmHg 69%
    09:00 +23°C° 0 mm 4 mps 765 mmHg 58%
    10:00 +26°C° 0 mm 3 mps 765 mmHg 53%
    11:00 +28°C° 0 mm 3 mps 764 mmHg 48%
    12:00 +30°C° 0 mm 3 mps 763 mmHg 43%
    13:00 +30°C° 0 mm 4 mps 762 mmHg 46%
    14:00 +30°C° 0 mm 4 mps 762 mmHg 48%
    15:00 +29°C° 0 mm 4 mps 761 mmHg 50%
    16:00 +27°C° 0 mm 4 mps 761 mmHg 58%
    17:00 +25°C° 0 mm 3 mps 761 mmHg 67%
    18:00 +22°C° 0 mm 3 mps 761 mmHg 76%
    19:00 +21°C° 0 mm 3 mps 761 mmHg 80%
    20:00 +20°C° 0 mm 3 mps 761 mmHg 85%
    21:00 +19°C° 0 mm 3 mps 762 mmHg 89%
    22:00 +19°C° 0 mm 3 mps 761 mmHg 91%
    23:00 +18°C° 0 mm 3 mps 761 mmHg 93%

    24 February, Monday

    Time Temperature Precipitation Wind Pressure Humidity
    00:00 +18°C° 0 mm 2 mps 761 mmHg 95%
    01:00 +18°C° 0 mm 2 mps 760 mmHg 94%
    02:00 +18°C° 0 mm 2 mps 760 mmHg 93%
    03:00 +19°C° 0 mm 1 mps 759 mmHg 91%
    04:00 +19°C° 0 mm 1 mps 760 mmHg 91%
    05:00 +19°C° 0 mm 1 mps 760 mmHg 90%
    06:00 +18°C° 0 mm 2 mps 760 mmHg 90%
    07:00 +21°C° 0 mm 2 mps 760 mmHg 79%
    08:00 +25°C° 0 mm 2 mps 761 mmHg 69%
    09:00 +27°C° 0 mm 2 mps 761 mmHg 58%
    10:00 +29°C° 0 mm 3 mps 761 mmHg 53%
    11:00 +30°C° 0 mm 3 mps 760 mmHg 48%
    12:00 +33°C° 0 mm 4 mps 759 mmHg 43%
    13:00 +33°C° 0 mm 4 mps 759 mmHg 44%
    14:00 +31°C° 0 mm 3 mps 758 mmHg 45%
    15:00 +31°C° 0 mm 3 mps 757 mmHg 46%
    16:00 +29°C° 0 mm 4 mps 757 mmHg 57%
    17:00 +27°C° 0 mm 4 mps 757 mmHg 68%
    18:00 +23°C° 0 mm 4 mps 757 mmHg 80%
    19:00 +22°C° 0 mm 4 mps 757 mmHg 85%
    20:00 +21°C° 0 mm 5 mps 758 mmHg 90%
    21:00 +21°C° 0 mm 5 mps 758 mmHg 95%
    22:00 +21°C° 0 mm 5 mps 758 mmHg 96%
    23:00 +21°C° 0 mm 5 mps 758 mmHg 97%

    25 February, Tuesday

    Time Temperature Precipitation Wind Pressure Humidity
    00:00 +21°C° 0 mm 5 mps 758 mmHg 98%
    01:00 +21°C° 0.1 mm 5 mps 757 mmHg 97%
    02:00 +22°C° 0.1 mm 5 mps 757 mmHg 96%
    03:00 +22°C° 0.1 mm 5 mps 757 mmHg 94%
    04:00 +22°C° 0.1 mm 5 mps 757 mmHg 96%
    05:00 +22°C° 0.1 mm 5 mps 757 mmHg 97%
    06:00 +22°C° 0.1 mm 5 mps 757 mmHg 98%
    07:00 +25°C° 0 mm 5 mps 758 mmHg 91%
    08:00 +27°C° 0 mm 6 mps 758 mmHg 85%
    09:00 +29°C° 0 mm 6 mps 759 mmHg 78%
    10:00 +30°C° 0 mm 5 mps 758 mmHg 70%
    11:00 +33°C° 0 mm 5 mps 758 mmHg 62%
    12:00 +34°C° 0 mm 4 mps 758 mmHg 55%
    13:00 +34°C° 0 mm 4 mps 757 mmHg 55%
    14:00 +34°C° 0 mm 3 mps 756 mmHg 55%
    15:00 +34°C° 0 mm 3 mps 756 mmHg 55%
    16:00 +31°C° 0 mm 3 mps 756 mmHg 64%
    17:00 +29°C° 0 mm 3 mps 756 mmHg 74%
    18:00 +26°C° 0 mm 3 mps 756 mmHg 84%
    19:00 +26°C° 0 mm 3 mps 756 mmHg 89%
    20:00 +25°C° 0 mm 3 mps 757 mmHg 94%
    21:00 +24°C° 0 mm 3 mps 757 mmHg 98%
    22:00 +24°C° 0 mm 3 mps 757 mmHg 99%
    23:00 +23°C° 0 mm 4 mps 757 mmHg 99%
    Show more